Augusta, ME

8:04 AM EDT on April 19, 2018 (GMT -0400)
Augusta State

Weather History for KAUG - January, 2013

Change the Weather History Date:

Tuesday, January 22, 2013

  Actual Average Record
Temperature  
Mean Temperature 9 °F 19 °F  
Max Temperature 12 °F 27 °F 49 °F (1957)
Min Temperature 3 °F 10 °F -15 °F (2005)
Degree Days  
Heating Degree Days 56 46  
Month to date heating degree days 1003  
Since 1 July heating degree days 3758  
Cooling Degree Days 0 0  
Month to date cooling degree days 0  
Year to date cooling degree days 0  
Moisture  
Dew Point -4 °F    
Average Humidity 57    
Maximum Humidity 76    
Minimum Humidity 36    
Precipitation  
Precipitation 0.00 in 0.09 in 1.49 in (1958)
Month to date precipitation 1.85  
Year to date precipitation 1.85  
Sea Level Pressure  
Sea Level Pressure 29.87 in    
Wind  
Wind Speed 8 mph (North)    
Max Wind Speed 12 mph    
Max Gust Speed 22 mph    
Visibility 9 miles    
Events Snow    
T = Trace of Precipitation, MM = Missing Value Source: NWS Daily Summary

Daily Weather History Graph

Daily Weather History Graph

Search for Another Location

Airport or City:

Trip Planner

Search our weather history database for the weather conditions in past years. The results will help you decide how hot, cold, wet, or windy it might be!

Date:

Astronomy

Jan. 22, 2013 Rise Set
Actual Time 7:06 AM EST 4:35 PM EST
Civil Twilight 6:35 AM EST 5:07 PM EST
Nautical Twilight 5:59 AM EST 5:42 PM EST
Astronomical Twilight 5:25 AM EST 6:16 PM EST
Moon 12:54 PM EST (1/22) 3:27 AM EST (1/22)
Length of Visible Light 10h 31m
Length of Day
9h 28m
Waxing Gibbous, 82% of the Moon is Illuminated
Jan 22
Waxing Gibbous
Jan 26
Full
Feb 3
Last Quarter
Feb 10
New
Feb 17
First Quarter

Hourly Weather History & Observations

Time (EST) Temp. Windchill Dew Point Humidity Pressure Visibility Wind Dir Wind Speed Gust Speed Precip Events Conditions
12:53 AM 12.0 °F 1.5 °F -2.0 °F 53% 29.83 in 10.0 mi NNE 6.9 mph - N/A   Clear
1:53 AM 12.0 °F 1.5 °F -0.9 °F 56% 29.81 in 10.0 mi NNE 6.9 mph - N/A   Overcast
2:53 AM 10.9 °F 1.4 °F -2.0 °F 56% 29.81 in 10.0 mi North 5.8 mph - N/A   Overcast
3:53 AM 10.9 °F -0.8 °F -2.9 °F 54% 29.81 in 10.0 mi North 8.1 mph - N/A   Overcast
4:53 AM 9.0 °F -5.1 °F -2.9 °F 59% 29.80 in 10.0 mi North 10.4 mph - N/A   Overcast
5:53 AM 7.0 °F -8.3 °F -5.1 °F 58% 29.80 in 10.0 mi North 11.5 mph 19.6 mph N/A   Mostly Cloudy
6:53 AM 6.1 °F -8.7 °F -6.0 °F 58% 29.81 in 10.0 mi North 10.4 mph - N/A   Overcast
7:53 AM 6.1 °F -6.8 °F -7.1 °F 55% 29.83 in 10.0 mi North 8.1 mph - N/A   Overcast
8:35 AM 6.8 °F -8.6 °F -5.8 °F 56% 29.81 in 7.0 mi North 11.5 mph - 0.00 in Snow Light Snow
8:50 AM 6.8 °F -7.8 °F -2.2 °F 67% 29.81 in 2.0 mi North 10.4 mph - 0.00 in Snow Light Snow
8:53 AM 6.1 °F -9.5 °F -2.0 °F 69% 29.84 in 2.0 mi North 11.5 mph - 0.00 in Snow Light Snow
9:53 AM 6.1 °F -9.5 °F -0.0 °F 76% 29.84 in 2.5 mi North 11.5 mph - 0.00 in Snow Light Snow
10:03 AM 6.8 °F -7.8 °F -0.4 °F 72% 29.82 in 3.0 mi NNE 10.4 mph - 0.00 in Snow Light Snow
10:53 AM 7.0 °F -7.5 °F -0.9 °F 70% 29.84 in 10.0 mi NNE 10.4 mph - 0.00 in   Overcast
11:53 AM 8.1 °F -3.2 °F -2.0 °F 64% 29.83 in 10.0 mi North 6.9 mph - 0.00 in   Overcast
12:53 PM 10.0 °F 0.4 °F -2.0 °F 58% 29.82 in 10.0 mi NNE 5.8 mph - N/A   Partly Cloudy
1:53 PM 10.9 °F 4.7 °F -2.9 °F 54% 29.83 in 10.0 mi ENE 3.5 mph - N/A   Partly Cloudy
2:53 PM 10.9 °F 4.7 °F -2.0 °F 56% 29.86 in 10.0 mi Variable 3.5 mph - N/A   Overcast
3:53 PM 10.9 °F - -0.9 °F 59% 29.88 in 10.0 mi Calm Calm - N/A   Mostly Cloudy
4:53 PM 10.0 °F - -0.0 °F 64% 29.90 in 10.0 mi Calm Calm - N/A   Partly Cloudy
5:53 PM 9.0 °F - -0.0 °F 67% 29.93 in 10.0 mi Calm Calm - N/A   Clear
6:53 PM 10.9 °F -3.4 °F -5.1 °F 49% 29.96 in 10.0 mi NW 11.5 mph - N/A   Clear
7:53 PM 9.0 °F -3.2 °F -7.1 °F 48% 29.97 in 10.0 mi WNW 8.1 mph - N/A   Clear
8:53 PM 8.1 °F -2.0 °F -9.9 °F 44% 29.98 in 10.0 mi WNW 5.8 mph - N/A   Clear
9:53 PM 7.0 °F -5.7 °F -14.1 °F 38% 29.99 in 10.0 mi West 8.1 mph - N/A   Clear
10:53 PM 6.1 °F -7.8 °F -16.1 °F 36% 30.01 in 10.0 mi WNW 9.2 mph 21.9 mph N/A   Clear
11:53 PM 3.9 °F -9.4 °F -18.0 °F 36% 30.02 in 10.0 mi WNW 8.1 mph 20.7 mph N/A   Clear